Regional Weather Roundup
Issued by NWS Green Bay, WI

Home | Current Version | Previous Version | Graphics & Text | Print | Product List | Glossary Off
Versions: 1 2 3 4 5 6 7 8 9 10 11 12 13 14 15 16 17 18 19 20 21 22 23 24 25 26 27 28 29 30 31 32 33 34 35 36 37 38 39 40 41 42 43 44 45 46 47 48 49 50

000
ASUS43 KGRB 190910
RWRGRB

NORTH-CENTRAL AND NORTHEAST WISCONSIN REGIONAL WEATHER ROUNDUP
NATIONAL WEATHER SERVICE GREEN BAY WI
300 AM CST FRI DEC 19 2014

WIZ005-009-010>012-018-019-191000-
NORTH CENTRAL WISCONSIN

CITY           SKY/WX    TMP DP  RH WIND       PRES   REMARKS
IRONWOOD       PTCLDY     3   1  92 E3        30.23F
MANITOWISH WTR CLOUDY     7   5  91 CALM      30.23S
ARBOR VITAE    PTCLDY     5   1  85 CALM      30.23S
EAGLE RIVER    PTCLDY     1  -3  81 CALM      30.23S
LAND O LAKES   PTCLDY    -4  -8  83 CALM      30.24S
RHINELANDER    FOG        3   0  87 CALM      30.23S VSB 3/4
PHILLIPS       CLOUDY    17  15  93 CALM      30.23S
ANTIGO         CLEAR      9   7  93 CALM      30.24S
TOMAHAWK       CLEAR      7   4  88 CALM      30.25S
MERRILL        CLEAR      9   7  92 CALM      30.25S
$$

WIZ013-073-191000-
NORTHEAST WISCONSIN

CITY           SKY/WX    TMP DP  RH WIND       PRES   REMARKS
IRON MOUNTAIN  PTCLDY     2  -1  88 CALM      30.25R
MARINETTE      PTCLDY    16  12  86 CALM      30.27S
OCONTO         CLEAR     14  13  96 CALM      30.28F
$$

WIZ017-030-035>037-045-191000-
CENTRAL WISCONSIN

CITY           SKY/WX    TMP DP  RH WIND       PRES   REMARKS
MEDFORD        CLOUDY    21  19  91 CALM      30.23S
WAUSAU         CLEAR     16  13  88 NW5       30.24S WCI   9
MOSINEE        CLEAR     18  18 100 NW5       30.26S
MARSHFIELD     CLOUDY    24  19  81 CALM      30.25S
WISC RAPIDS    CLOUDY    22  18  85 CALM      30.28S
STEVENS POINT  CLEAR     10   8  88 CALM      30.27S
WAUPACA        CLEAR     17  14  90 CALM      30.28S
SHAWANO        CLEAR     17  14  88 CALM      30.29S
CLINTONVILLE   CLEAR     18  14  86 CALM      30.28S
$$

WIZ038-039-048-051-191000-
FOX VALLEY

CITY           SKY/WX    TMP DP  RH WIND       PRES   REMARKS
NWS GREEN BAY  CLEAR     18  16  92 CALM      30.28S
APPLETON       CLEAR     18  18 100 NW7       30.27S WCI   8
OSHKOSH        CLEAR     19  16  88 W5        30.27S
FOND DU LAC    CLEAR     17  13  84 CALM      30.28S
$$

WIZ022-050-052-191000-
EAST CENTRAL WISCONSIN

CITY           SKY/WX    TMP DP  RH WIND       PRES   REMARKS
STURGEON BAY   MOCLDY    19  12  73 CALM      30.28S
MANITOWOC      CLOUDY    25  22  88 NW6       30.27S
SHEBOYGAN      CLOUDY    22  17  81 NW6       30.26S
$$

LMZ563-521-522-541>543-191000-
LAKESHORE

STATION/POSITION TIME  TEMP    WIND        PRES    VSBY  WAVE
                       AIR SEA DIR/SP/G                  HT/PER
                 (UTC) (F)     (DEG/KT/KT) (MB)    (MI)  (FT/S)
SHEBOYGAN LKSHOR 0900   25 34  290/ 10/ 12 1026.0F
KEWAUNEE LKSHORE 0900   24     300/  4/  8 1024.1R
ALGOMA MARINA    0800          330/  6/  7   N/A
NORTHPORT PIER   0900   27     360/  7/  8 1025.1R
SISTER BAY LKSHO 0900             CALM       N/A
CHAMBERS ISLAND  0900   23     280/  4/  7 1025.4S
MENOMINEE LKSHOR 0900   19     310/  6/  7 1025.9F
$$


USA.gov is the U.S. government's official web portal to all federal, state and local government web resources and services.